Time,TemperatureF,DewpointF,PressureIn,WindDirection,WindDirectionDegrees,WindSpeedMPH,WindSpeedGustMPH,Humidity,HourlyPrecipIn,Conditions,Clouds,dailyrainin,SoftwareType,DateUTC
2013-07-14 00:02:00,72.0,69.0,-100.00,SW,220,1.0,4.0,91,0.00,,,-99.99,,2013-07-14 04:02:00,
2013-07-14 00:11:00,71.0,69.0,-100.00,SW,220,0.0,4.0,92,0.00,,,-99.99,,2013-07-14 04:11:00,
2013-07-14 00:22:00,71.0,69.0,-100.00,SW,220,0.0,3.0,92,0.00,,,-99.99,,2013-07-14 04:22:00,
2013-07-14 00:32:00,71.0,69.0,-100.00,SW,225,0.0,0.0,93,0.00,,,-99.99,,2013-07-14 04:32:00,
2013-07-14 00:42:00,71.0,69.0,-100.00,SW,235,0.0,0.0,93,0.00,,,-99.99,,2013-07-14 04:42:00,
2013-07-14 00:53:00,71.0,69.0,-100.00,West,270,0.0,3.0,93,0.00,,,-99.99,,2013-07-14 04:53:00,
2013-07-14 01:02:00,71.0,69.0,-100.00,WSW,245,0.0,0.0,93,0.00,,,-99.99,,2013-07-14 05:02:00,
2013-07-14 01:11:00,70.0,69.0,-100.00,West,270,0.0,0.0,94,0.00,,,-99.99,,2013-07-14 05:11:00,
2013-07-14 01:23:00,70.0,68.0,-100.00,WNW,295,0.0,0.0,94,0.00,,,-99.99,,2013-07-14 05:23:00,
2013-07-14 01:43:00,69.0,68.0,-100.00,WNW,285,3.0,6.0,95,0.00,,,-99.99,,2013-07-14 05:43:00,
2013-07-14 01:53:00,69.0,68.0,-100.00,West,280,2.0,4.0,95,0.00,,,-99.99,,2013-07-14 05:53:00,
2013-07-14 02:01:00,69.0,68.0,-100.00,West,280,2.0,4.0,95,0.00,,,-99.99,,2013-07-14 06:01:00,
2013-07-14 02:11:00,69.0,68.0,-100.00,West,280,4.0,6.0,96,0.00,,,-99.99,,2013-07-14 06:11:00,
2013-07-14 02:22:00,69.0,68.0,-100.00,West,270,4.0,6.0,96,0.00,,,-99.99,,2013-07-14 06:22:00,
2013-07-14 02:42:00,70.0,69.0,-100.00,West,270,4.0,5.0,96,0.00,,,-99.99,,2013-07-14 06:42:00,
2013-07-14 02:53:00,69.0,68.0,-100.00,West,270,4.0,5.0,96,0.00,,,-99.99,,2013-07-14 06:53:00,
2013-07-14 03:02:00,69.0,68.0,-100.00,WNW,290,3.0,4.0,96,0.00,,,-99.99,,2013-07-14 07:02:00,
2013-07-14 03:12:00,69.0,68.0,-100.00,WNW,295,2.0,4.0,96,0.00,,,-99.99,,2013-07-14 07:12:00,
2013-07-14 03:22:00,69.0,68.0,-100.00,WNW,290,3.0,4.0,96,0.00,,,-99.99,,2013-07-14 07:22:00,
2013-07-14 03:33:00,70.0,69.0,-100.00,West,280,4.0,6.0,96,0.00,,,-99.99,,2013-07-14 07:33:00,
2013-07-14 03:43:00,70.0,69.0,-100.00,West,275,4.0,6.0,96,0.00,,,-99.99,,2013-07-14 07:43:00,
2013-07-14 03:53:00,70.0,69.0,-100.00,West,270,4.0,7.0,95,0.00,,,-99.99,,2013-07-14 07:53:00,
2013-07-14 04:01:00,70.0,69.0,-100.00,West,280,4.0,7.0,95,0.00,,,-99.99,,2013-07-14 08:01:00,
2013-07-14 04:11:00,70.0,68.0,-100.00,WNW,290,4.0,6.0,96,0.00,,,-99.99,,2013-07-14 08:11:00,
2013-07-14 04:22:00,70.0,69.0,-100.00,WNW,285,4.0,7.0,96,0.00,,,-99.99,,2013-07-14 08:22:00,
2013-07-14 04:42:00,70.0,69.0,-100.00,West,265,4.0,6.0,96,0.00,,,-99.99,,2013-07-14 08:42:00,
2013-07-14 04:53:00,69.0,68.0,-100.00,West,260,4.0,6.0,96,0.00,,,-99.99,,2013-07-14 08:53:00,
2013-07-14 05:01:00,69.0,68.0,-100.00,West,260,5.0,7.0,96,0.00,,,-99.99,,2013-07-14 09:01:00,
2013-07-14 05:11:00,69.0,68.0,-100.00,WSW,255,4.0,6.0,96,0.00,,,-99.99,,2013-07-14 09:11:00,
2013-07-14 05:22:00,69.0,68.0,-100.00,WSW,250,4.0,6.0,96,0.00,,,-99.99,,2013-07-14 09:22:00,
2013-07-14 05:32:00,69.0,68.0,-100.00,West,265,4.0,6.0,96,0.00,,,-99.99,,2013-07-14 09:32:00,
2013-07-14 05:42:00,69.0,68.0,-100.00,West,265,4.0,6.0,96,0.00,,,-99.99,,2013-07-14 09:42:00,
2013-07-14 05:52:00,69.0,68.0,-100.00,WSW,250,3.0,6.0,96,0.00,,,-99.99,,2013-07-14 09:52:00,
2013-07-14 06:01:00,69.0,68.0,-100.00,West,260,4.0,6.0,96,0.00,,,-99.99,,2013-07-14 10:01:00,
2013-07-14 06:12:00,69.0,68.0,-100.00,West,265,4.0,7.0,97,0.00,,,-99.99,,2013-07-14 10:12:00,
2013-07-14 06:22:00,69.0,68.0,-100.00,West,265,4.0,7.0,97,0.00,,,-99.99,,2013-07-14 10:22:00,
2013-07-14 06:42:00,68.0,68.0,-100.00,WNW,300,6.0,7.0,97,0.00,,,-99.99,,2013-07-14 10:42:00,
2013-07-14 06:53:00,68.0,68.0,-100.00,WNW,300,6.0,7.0,97,0.00,,,-99.99,,2013-07-14 10:53:00,
2013-07-14 07:02:00,69.0,68.0,-100.00,WNW,290,6.0,7.0,97,0.00,,,-99.99,,2013-07-14 11:02:00,
2013-07-14 07:11:00,69.0,68.0,-100.00,WNW,295,6.0,9.0,97,0.00,,,-99.99,,2013-07-14 11:11:00,
2013-07-14 07:22:00,69.0,69.0,-100.00,WNW,290,6.0,9.0,97,0.00,,,-99.99,,2013-07-14 11:22:00,
2013-07-14 07:32:00,70.0,69.0,-100.00,WNW,290,7.0,9.0,97,0.00,,,-99.99,,2013-07-14 11:32:00,
2013-07-14 07:43:00,70.0,69.0,-100.00,WNW,285,7.0,10.0,96,0.00,,,-99.99,,2013-07-14 11:43:00,
2013-07-14 07:53:00,71.0,70.0,-100.00,West,280,6.0,10.0,95,0.00,,,-99.99,,2013-07-14 11:53:00,
2013-07-14 08:02:00,72.0,70.0,-100.00,WNW,295,7.0,9.0,93,0.00,,,-99.99,,2013-07-14 12:02:00,
2013-07-14 08:11:00,73.0,70.0,-100.00,WNW,290,7.0,10.0,91,0.00,,,-99.99,,2013-07-14 12:11:00,
2013-07-14 08:22:00,73.0,70.0,-100.00,WNW,290,8.0,11.0,88,0.00,,,-99.99,,2013-07-14 12:22:00,
2013-07-14 08:33:00,74.0,70.0,-100.00,WNW,300,6.0,12.0,86,0.00,,,-99.99,,2013-07-14 12:33:00,
2013-07-14 08:43:00,75.0,70.0,-100.00,WNW,295,7.0,10.0,83,0.00,,,-99.99,,2013-07-14 12:43:00,
2013-07-14 08:52:00,76.0,70.0,-100.00,WNW,295,6.0,10.0,81,0.00,,,-99.99,,2013-07-14 12:52:00,
2013-07-14 09:11:00,77.0,70.0,-100.00,WNW,300,8.0,11.0,78,0.00,,,-99.99,,2013-07-14 13:11:00,
2013-07-14 09:22:00,78.0,70.0,-100.00,West,270,7.0,11.0,75,0.00,,,-99.99,,2013-07-14 13:22:00,
2013-07-14 09:42:00,79.0,70.0,-100.00,West,260,7.0,12.0,72,0.00,,,-99.99,,2013-07-14 13:42:00,
2013-07-14 09:53:00,80.0,70.0,-100.00,WNW,285,7.0,11.0,71,0.00,,,-99.99,,2013-07-14 13:53:00,
2013-07-14 10:11:00,81.0,70.0,-100.00,WNW,300,6.0,12.0,68,0.00,,,-99.99,,2013-07-14 14:11:00,
2013-07-14 10:23:00,82.0,70.0,-100.00,West,280,7.0,10.0,66,0.00,,,-99.99,,2013-07-14 14:23:00,
2013-07-14 10:33:00,82.0,70.0,-100.00,West,280,7.0,10.0,66,0.00,,,-99.99,,2013-07-14 14:33:00,
2013-07-14 10:43:00,83.0,69.0,-100.00,NW,305,7.0,11.0,64,0.00,,,-99.99,,2013-07-14 14:43:00,
2013-07-14 10:53:00,83.0,69.0,-100.00,WNW,300,6.0,11.0,63,0.00,,,-99.99,,2013-07-14 14:53:00,
2013-07-14 11:01:00,83.0,69.0,-100.00,West,280,8.0,11.0,63,0.00,,,-99.99,,2013-07-14 15:01:00,
2013-07-14 11:12:00,83.0,69.0,-100.00,NW,325,6.0,12.0,63,0.00,,,-99.99,,2013-07-14 15:12:00,
2013-07-14 11:22:00,84.0,69.0,-100.00,NW,325,7.0,11.0,60,0.00,,,-99.99,,2013-07-14 15:22:00,
2013-07-14 11:32:00,84.0,69.0,-100.00,WSW,250,7.0,9.0,60,0.00,,,-99.99,,2013-07-14 15:32:00,
2013-07-14 11:42:00,84.0,69.0,-100.00,NW,320,4.0,10.0,59,0.00,,,-99.99,,2013-07-14 15:42:00,
2013-07-14 11:53:00,85.0,69.0,-100.00,West,280,7.0,11.0,58,0.00,,,-99.99,,2013-07-14 15:53:00,
2013-07-14 12:01:00,85.0,69.0,-100.00,WSW,250,6.0,11.0,57,0.00,,,-99.99,,2013-07-14 16:01:00,
2013-07-14 12:11:00,86.0,69.0,-100.00,WNW,285,5.0,11.0,57,0.00,,,-99.99,,2013-07-14 16:11:00,
2013-07-14 12:22:00,87.0,69.0,-100.00,WNW,290,7.0,12.0,55,0.00,,,-99.99,,2013-07-14 16:22:00,
2013-07-14 12:32:00,87.0,70.0,-100.00,WNW,290,7.0,10.0,56,0.00,,,-99.99,,2013-07-14 16:32:00,
2013-07-14 12:43:00,87.0,69.0,-100.00,NW,320,4.0,10.0,56,0.00,,,-99.99,,2013-07-14 16:43:00,
2013-07-14 12:53:00,87.0,69.0,-100.00,West,260,4.0,12.0,56,0.00,,,-99.99,,2013-07-14 16:53:00,
2013-07-14 13:02:00,85.0,69.0,-100.00,NNW,340,7.0,10.0,59,0.00,,,-99.99,,2013-07-14 17:02:00,
2013-07-14 13:11:00,86.0,68.0,-100.00,NNW,330,6.0,10.0,55,0.00,,,-99.99,,2013-07-14 17:11:00,
2013-07-14 13:22:00,87.0,68.0,-100.00,NW,320,5.0,9.0,53,0.00,,,-99.99,,2013-07-14 17:22:00,
2013-07-14 13:32:00,87.0,69.0,-100.00,WNW,285,6.0,9.0,54,0.00,,,-99.99,,2013-07-14 17:32:00,
2013-07-14 13:43:00,87.0,69.0,-100.00,NNW,340,2.0,9.0,55,0.00,,,-99.99,,2013-07-14 17:43:00,
2013-07-14 13:53:00,86.0,69.0,-100.00,North,350,4.0,8.0,56,0.00,,,-99.99,,2013-07-14 17:53:00,
2013-07-14 14:01:00,87.0,69.0,-100.00,North,355,1.0,9.0,55,0.00,,,-99.99,,2013-07-14 18:01:00,
2013-07-14 14:11:00,88.0,68.0,-100.00,NW,310,4.0,10.0,52,0.00,,,-99.99,,2013-07-14 18:11:00,
2013-07-14 14:22:00,87.0,69.0,-100.00,SW,220,6.0,9.0,53,0.00,,,-99.99,,2013-07-14 18:22:00,
2013-07-14 14:32:00,87.0,68.0,-100.00,NNW,330,6.0,11.0,53,0.00,,,-99.99,,2013-07-14 18:32:00,
2013-07-14 14:42:00,87.0,67.0,-100.00,WNW,295,7.0,10.0,51,0.00,,,-99.99,,2013-07-14 18:42:00,
2013-07-14 14:52:00,88.0,67.0,-100.00,West,265,5.0,9.0,50,0.00,,,-99.99,,2013-07-14 18:52:00,
2013-07-14 15:02:00,87.0,67.0,-100.00,WNW,290,6.0,9.0,52,0.00,,,-99.99,,2013-07-14 19:02:00,
2013-07-14 15:12:00,87.0,68.0,-100.00,NW,315,5.0,8.0,53,0.00,,,-99.99,,2013-07-14 19:12:00,
2013-07-14 15:22:00,87.0,68.0,-100.00,NNW,340,4.0,8.0,53,0.00,,,-99.99,,2013-07-14 19:22:00,
2013-07-14 15:32:00,87.0,68.0,-100.00,West,275,4.0,8.0,53,0.00,,,-99.99,,2013-07-14 19:32:00,
2013-07-14 15:43:00,88.0,68.0,-100.00,NW,315,6.0,7.0,52,0.00,,,-99.99,,2013-07-14 19:43:00,
2013-07-14 15:53:00,87.0,69.0,-100.00,NW,325,5.0,8.0,55,0.00,,,-99.99,,2013-07-14 19:53:00,
2013-07-14 16:02:00,89.0,69.0,-100.00,North,0,3.0,9.0,52,0.00,,,-99.99,,2013-07-14 20:02:00,
2013-07-14 16:11:00,89.0,68.0,-100.00,WNW,300,4.0,7.0,50,0.00,,,-99.99,,2013-07-14 20:11:00,
2013-07-14 16:22:00,90.0,69.0,-100.00,West,280,4.0,9.0,49,0.00,,,-99.99,,2013-07-14 20:22:00,
2013-07-14 16:32:00,90.0,67.0,-100.00,WNW,295,6.0,12.0,47,0.00,,,-99.99,,2013-07-14 20:32:00,
2013-07-14 16:43:00,89.0,67.0,-100.00,NNW,335,5.0,9.0,49,0.00,,,-99.99,,2013-07-14 20:43:00,
2013-07-14 16:53:00,89.0,67.0,-100.00,NW,325,6.0,11.0,47,0.00,,,-99.99,,2013-07-14 20:53:00,
2013-07-14 17:02:00,90.0,68.0,-100.00,NNW,330,1.0,8.0,48,0.00,,,-99.99,,2013-07-14 21:02:00,
2013-07-14 17:11:00,88.0,67.0,-100.00,West,275,4.0,9.0,50,0.00,,,-99.99,,2013-07-14 21:11:00,
2013-07-14 17:22:00,88.0,67.0,-100.00,West,275,4.0,9.0,50,0.00,,,-99.99,,2013-07-14 21:22:00,
2013-07-14 17:32:00,87.0,72.0,-100.00,East,85,4.0,6.0,60,0.00,,,-99.99,,2013-07-14 21:32:00,
2013-07-14 17:43:00,86.0,73.0,-100.00,East,95,1.0,6.0,64,0.00,,,-99.99,,2013-07-14 21:43:00,
2013-07-14 17:52:00,88.0,72.0,-100.00,SE,125,4.0,7.0,59,0.00,,,-99.99,,2013-07-14 21:52:00,
2013-07-14 18:01:00,88.0,73.0,-100.00,ESE,105,3.0,9.0,60,0.00,,,-99.99,,2013-07-14 22:01:00,
2013-07-14 18:11:00,86.0,72.0,-100.00,South,170,2.0,7.0,62,0.00,,,-99.99,,2013-07-14 22:11:00,
2013-07-14 18:22:00,86.0,73.0,-100.00,South,190,2.0,6.0,65,0.00,,,-99.99,,2013-07-14 22:22:00,
2013-07-14 18:32:00,85.0,73.0,-100.00,East,100,3.0,5.0,66,0.00,,,-99.99,,2013-07-14 22:32:00,
2013-07-14 18:42:00,87.0,74.0,-100.00,South,190,0.0,4.0,65,0.00,,,-99.99,,2013-07-14 22:42:00,
2013-07-14 18:53:00,87.0,73.0,-100.00,East,90,3.0,6.0,62,0.00,,,-99.99,,2013-07-14 22:53:00,
2013-07-14 19:01:00,86.0,72.0,-100.00,ESE,115,2.0,5.0,64,0.00,,,-99.99,,2013-07-14 23:01:00,
2013-07-14 19:11:00,85.0,73.0,-100.00,SE,130,1.0,4.0,66,0.00,,,-99.99,,2013-07-14 23:11:00,
2013-07-14 19:22:00,85.0,73.0,-100.00,South,170,0.0,2.0,68,0.00,,,-99.99,,2013-07-14 23:22:00,
2013-07-14 19:32:00,84.0,74.0,-100.00,South,175,0.0,3.0,72,0.00,,,-99.99,,2013-07-14 23:32:00,
2013-07-14 19:42:00,84.0,74.0,-100.00,South,175,0.0,2.0,72,0.00,,,-99.99,,2013-07-14 23:42:00,
2013-07-14 19:53:00,84.0,74.0,-100.00,South,170,0.0,2.0,72,0.00,,,-99.99,,2013-07-14 23:53:00,
2013-07-14 20:02:00,83.0,74.0,-100.00,SSE,165,1.0,4.0,74,0.00,,,-99.99,,2013-07-15 00:02:00,
2013-07-14 20:11:00,83.0,74.0,-100.00,South,175,0.0,2.0,75,0.00,,,-99.99,,2013-07-15 00:11:00,
2013-07-14 20:22:00,83.0,74.0,-100.00,South,175,0.0,2.0,75,0.00,,,-99.99,,2013-07-15 00:22:00,
2013-07-14 20:32:00,82.0,74.0,-100.00,SSW,195,2.0,4.0,77,0.00,,,-99.99,,2013-07-15 00:32:00,
2013-07-14 20:43:00,82.0,74.0,-100.00,South,185,0.0,2.0,77,0.00,,,-99.99,,2013-07-15 00:43:00,
2013-07-14 20:53:00,82.0,74.0,-100.00,South,185,0.0,0.0,78,0.00,,,-99.99,,2013-07-15 00:53:00,
2013-07-14 21:01:00,82.0,74.0,-100.00,SE,135,0.0,0.0,79,0.00,,,-99.99,,2013-07-15 01:01:00,
2013-07-14 21:11:00,81.0,74.0,-100.00,SSE,150,0.0,0.0,80,0.00,,,-99.99,,2013-07-15 01:11:00,
2013-07-14 21:22:00,81.0,74.0,-100.00,SSE,165,0.0,0.0,81,0.00,,,-99.99,,2013-07-15 01:22:00,
2013-07-14 21:32:00,81.0,74.0,-100.00,South,185,0.0,0.0,81,0.00,,,-99.99,,2013-07-15 01:32:00,
2013-07-14 21:43:00,80.0,74.0,-100.00,SSW,195,0.0,0.0,82,0.00,,,-99.99,,2013-07-15 01:43:00,
2013-07-14 21:53:00,80.0,74.0,-100.00,SW,220,0.0,0.0,83,0.00,,,-99.99,,2013-07-15 01:53:00,
2013-07-14 22:02:00,80.0,74.0,-100.00,SW,225,0.0,0.0,83,0.00,,,-99.99,,2013-07-15 02:02:00,
2013-07-14 22:11:00,80.0,74.0,-100.00,WSW,255,0.0,0.0,83,0.00,,,-99.99,,2013-07-15 02:11:00,
2013-07-14 22:22:00,80.0,74.0,-100.00,WSW,255,0.0,0.0,83,0.00,,,-99.99,,2013-07-15 02:22:00,
2013-07-14 22:32:00,79.0,74.0,-100.00,NW,305,0.0,0.0,84,0.00,,,-99.99,,2013-07-15 02:32:00,
2013-07-14 22:42:00,79.0,74.0,-100.00,WNW,295,0.0,0.0,86,0.00,,,-99.99,,2013-07-15 02:42:00,
2013-07-14 22:53:00,78.0,74.0,-100.00,West,265,0.0,0.0,87,0.00,,,-99.99,,2013-07-15 02:53:00,
2013-07-14 23:02:00,79.0,74.0,-100.00,West,260,0.0,0.0,86,0.00,,,-99.99,,2013-07-15 03:02:00,
2013-07-14 23:11:00,79.0,74.0,-100.00,West,260,0.0,0.0,86,0.00,,,-99.99,,2013-07-15 03:11:00,
2013-07-14 23:22:00,78.0,74.0,-100.00,NNW,335,0.0,0.0,89,0.00,,,-99.99,,2013-07-15 03:22:00,
2013-07-14 23:32:00,77.0,74.0,-100.00,NNW,335,0.0,0.0,90,0.00,,,-99.99,,2013-07-15 03:32:00,
2013-07-14 23:43:00,77.0,74.0,-100.00,NNW,330,0.0,0.0,91,0.00,,,-99.99,,2013-07-15 03:43:00,
2013-07-14 23:53:00,78.0,75.0,-100.00,NNW,335,0.0,0.0,90,0.00,,,-99.99,,2013-07-15 03:53:00,